Location: Fernhill
(41.0167°S, 175.6333°E)
Time: 11:53:06
(UTC+00:00)

Cosmos 2058 Rocket - Pass Details

Date: 08 November 2025
Orbit: 605 x 631 km, 82.5° (Epoch: 10 December)

Event Time Altitude Azimuth Distance (km) Brightness Sun altitude
Rises 09:35:50 0° 183° (S) 2,912 7.4 -23.2°
Reaches altitude 10° 09:38:09 10° 177° (S) 1,996 6.3 -23.4°
Enters shadow 09:41:58 47° 124° (SE) 819 3.6 -23.9°
